Time,TemperatureF,DewpointF,PressureIn,WindDirection,WindDirectionDegrees,WindSpeedMPH,WindSpeedGustMPH,Humidity,HourlyPrecipIn,Conditions,Clouds,dailyrainin,SolarRadiationWatts/m^2,SoftwareType,DateUTC
2013-08-06 00:00:00,53.2,50.0,30.11,WSW,250,3.0,11.0,89,0.00,,,0.00,0.0,meteohub,2013-08-06 07:00:00,
2013-08-06 00:05:00,53.1,49.8,30.11,SSW,196,4.0,10.0,89,0.00,,,0.00,0.0,meteohub,2013-08-06 07:05:00,
2013-08-06 00:10:00,53.1,49.8,30.11,West,273,3.0,10.0,89,0.00,,,0.00,0.0,meteohub,2013-08-06 07:10:00,
2013-08-06 00:15:00,53.1,50.2,30.12,West,262,4.0,12.0,90,0.00,,,0.00,0.0,meteohub,2013-08-06 07:15:00,
2013-08-06 00:20:00,53.1,50.2,30.12,WSW,245,9.0,12.0,90,0.00,,,0.00,0.0,meteohub,2013-08-06 07:20:00,
2013-08-06 00:26:00,53.1,50.2,30.12,SW,227,6.0,12.0,90,0.00,,,0.00,0.0,meteohub,2013-08-06 07:26:00,
2013-08-06 00:31:00,53.1,50.2,30.12,WSW,253,6.0,10.0,90,0.00,,,0.00,0.0,meteohub,2013-08-06 07:31:00,
2013-08-06 00:36:00,53.1,50.2,30.12,WSW,255,5.0,15.0,90,0.00,,,0.00,0.0,meteohub,2013-08-06 07:36:00,
2013-08-06 00:41:00,53.1,50.2,30.12,WSW,252,2.0,15.0,90,0.00,,,0.00,0.0,meteohub,2013-08-06 07:41:00,
2013-08-06 00:46:00,53.1,50.2,30.12,SW,236,5.0,15.0,90,0.00,,,0.00,0.0,meteohub,2013-08-06 07:46:00,
2013-08-06 00:51:00,53.1,50.2,30.12,West,268,4.0,11.0,90,0.00,,,0.00,0.0,meteohub,2013-08-06 07:51:00,
2013-08-06 00:56:00,53.1,50.2,30.11,WSW,251,5.0,9.0,90,0.00,,,0.00,0.0,meteohub,2013-08-06 07:56:00,
2013-08-06 01:01:00,53.1,50.2,30.11,WSW,244,5.0,11.0,90,0.00,,,0.00,0.0,meteohub,2013-08-06 08:01:00,
2013-08-06 01:06:00,53.1,50.2,30.11,WSW,250,4.0,11.0,90,0.00,,,0.00,0.0,meteohub,2013-08-06 08:06:00,
2013-08-06 01:11:00,53.1,50.2,30.11,WSW,254,6.0,11.0,90,0.00,,,0.00,0.0,meteohub,2013-08-06 08:11:00,
2013-08-06 01:16:00,53.2,50.4,30.11,SW,236,6.0,13.0,90,0.00,,,0.00,0.0,meteohub,2013-08-06 08:16:00,
2013-08-06 01:21:00,53.2,50.4,30.11,WSW,256,5.0,13.0,90,0.00,,,0.00,0.0,meteohub,2013-08-06 08:21:00,
2013-08-06 01:26:00,53.2,50.4,30.11,WSW,237,5.0,10.0,90,0.00,,,0.00,0.0,meteohub,2013-08-06 08:26:00,
2013-08-06 01:31:00,53.2,50.4,30.11,SW,234,5.0,10.0,90,0.00,,,0.00,0.0,meteohub,2013-08-06 08:31:00,
2013-08-06 01:36:00,53.2,50.4,30.11,WSW,242,6.0,10.0,90,0.00,,,0.00,0.0,meteohub,2013-08-06 08:36:00,
2013-08-06 01:41:00,53.2,50.4,30.11,West,267,4.0,10.0,90,0.00,,,0.00,0.0,meteohub,2013-08-06 08:41:00,
2013-08-06 01:46:00,53.2,50.4,30.11,SW,233,9.0,10.0,90,0.00,,,0.00,0.0,meteohub,2013-08-06 08:46:00,
2013-08-06 01:51:00,53.2,50.4,30.11,SW,221,2.0,12.0,90,0.00,,,0.00,0.0,meteohub,2013-08-06 08:51:00,
2013-08-06 01:56:00,53.1,50.2,30.11,WSW,246,4.0,12.0,90,0.00,,,0.00,0.0,meteohub,2013-08-06 08:56:00,
2013-08-06 02:01:00,53.1,50.2,30.11,West,281,4.0,12.0,90,0.00,,,0.00,0.0,meteohub,2013-08-06 09:01:00,
2013-08-06 02:07:00,53.2,50.4,30.11,WSW,255,3.0,9.0,90,0.00,,,0.00,0.0,meteohub,2013-08-06 09:07:00,
2013-08-06 02:12:00,53.2,50.7,30.11,WSW,244,3.0,9.0,91,0.00,,,0.00,0.0,meteohub,2013-08-06 09:12:00,
2013-08-06 02:17:00,53.2,50.7,30.11,WSW,244,4.0,8.0,91,0.00,,,0.00,0.0,meteohub,2013-08-06 09:17:00,
2013-08-06 02:22:00,53.2,50.7,30.11,West,277,4.0,9.0,91,0.00,,,0.00,0.0,meteohub,2013-08-06 09:22:00,
2013-08-06 02:27:00,53.2,50.7,30.11,WSW,239,4.0,11.0,91,0.00,,,0.00,0.0,meteohub,2013-08-06 09:27:00,
2013-08-06 02:32:00,53.2,50.7,30.10,West,259,3.0,14.0,91,0.00,,,0.00,0.0,meteohub,2013-08-06 09:32:00,
2013-08-06 02:37:00,53.2,50.7,30.10,WSW,242,4.0,14.0,91,0.00,,,0.00,0.0,meteohub,2013-08-06 09:37:00,
2013-08-06 02:42:00,53.2,50.7,30.10,SW,229,5.0,14.0,91,0.00,,,0.00,0.0,meteohub,2013-08-06 09:42:00,
2013-08-06 02:47:00,53.2,50.7,30.10,West,265,6.0,13.0,91,0.00,,,0.00,0.0,meteohub,2013-08-06 09:47:00,
2013-08-06 02:52:00,53.4,50.9,30.10,West,271,6.0,11.0,91,0.00,,,0.00,0.0,meteohub,2013-08-06 09:52:00,
2013-08-06 02:57:00,53.4,50.9,30.10,West,268,5.0,11.0,91,0.00,,,0.00,0.0,meteohub,2013-08-06 09:57:00,
2013-08-06 03:02:00,53.4,50.9,30.10,South,174,4.0,11.0,91,0.00,,,0.00,0.0,meteohub,2013-08-06 10:02:00,
2013-08-06 03:07:00,53.4,50.9,30.10,WSW,249,9.0,11.0,91,0.00,,,0.00,0.0,meteohub,2013-08-06 10:07:00,
2013-08-06 03:12:00,53.4,50.9,30.10,WSW,250,2.0,11.0,91,0.00,,,0.00,0.0,meteohub,2013-08-06 10:12:00,
2013-08-06 03:17:00,53.4,50.9,30.10,WSW,258,2.0,10.0,91,0.00,,,0.00,0.0,meteohub,2013-08-06 10:17:00,
2013-08-06 03:22:00,53.4,50.9,30.10,WSW,254,6.0,10.0,91,0.00,,,0.00,0.0,meteohub,2013-08-06 10:22:00,
2013-08-06 03:27:00,53.4,50.9,30.10,SW,236,5.0,11.0,91,0.00,,,0.00,0.0,meteohub,2013-08-06 10:27:00,
2013-08-06 03:32:00,53.4,50.9,30.10,WSW,245,4.0,11.0,91,0.00,,,0.00,0.0,meteohub,2013-08-06 10:32:00,
2013-08-06 03:37:00,53.4,51.1,30.10,SW,233,6.0,14.0,92,0.00,,,0.00,0.0,meteohub,2013-08-06 10:37:00,
2013-08-06 03:42:00,53.6,51.3,30.10,WNW,284,8.0,14.0,92,0.00,,,0.00,0.0,meteohub,2013-08-06 10:42:00,
2013-08-06 03:47:00,53.6,51.3,30.10,WSW,250,5.0,14.0,92,0.00,,,0.00,0.0,meteohub,2013-08-06 10:47:00,
2013-08-06 03:52:00,53.6,51.3,30.10,WSW,244,4.0,12.0,92,0.00,,,0.00,0.0,meteohub,2013-08-06 10:52:00,
2013-08-06 03:57:00,53.6,51.3,30.10,WSW,237,4.0,9.0,92,0.00,,,0.00,0.0,meteohub,2013-08-06 10:57:00,
2013-08-06 04:02:00,53.4,51.1,30.10,SW,232,7.0,11.0,92,0.00,,,0.00,0.0,meteohub,2013-08-06 11:02:00,
2013-08-06 04:07:00,53.4,51.1,30.10,SSW,208,7.0,11.0,92,0.00,,,0.00,0.0,meteohub,2013-08-06 11:07:00,
2013-08-06 04:12:00,53.4,51.1,30.10,West,267,6.0,11.0,92,0.00,,,0.00,0.0,meteohub,2013-08-06 11:12:00,
2013-08-06 04:17:00,53.2,50.9,30.10,WSW,254,6.0,11.0,92,0.00,,,0.00,0.0,meteohub,2013-08-06 11:17:00,
2013-08-06 04:22:00,53.4,51.1,30.10,WSW,252,6.0,12.0,92,0.00,,,0.00,0.0,meteohub,2013-08-06 11:22:00,
2013-08-06 04:27:00,53.4,51.1,30.10,West,269,4.0,12.0,92,0.00,,,0.00,0.0,meteohub,2013-08-06 11:27:00,
2013-08-06 04:32:00,53.4,51.1,30.10,SW,221,3.0,12.0,92,0.00,,,0.00,0.0,meteohub,2013-08-06 11:32:00,
2013-08-06 04:37:00,53.4,51.1,30.10,WSW,240,6.0,10.0,92,0.00,,,0.00,0.0,meteohub,2013-08-06 11:37:00,
2013-08-06 04:42:00,53.6,51.3,30.10,West,273,5.0,9.0,92,0.00,,,0.00,0.0,meteohub,2013-08-06 11:42:00,
2013-08-06 04:48:00,53.6,51.3,30.10,SSW,209,4.0,9.0,92,0.00,,,0.00,0.0,meteohub,2013-08-06 11:48:00,
2013-08-06 04:53:00,53.6,51.3,30.10,WSW,239,6.0,12.0,92,0.00,,,0.00,0.0,meteohub,2013-08-06 11:53:00,
2013-08-06 04:58:00,53.4,51.1,30.10,SW,214,7.0,12.0,92,0.00,,,0.00,0.0,meteohub,2013-08-06 11:58:00,
2013-08-06 05:03:00,53.4,51.1,30.10,West,261,3.0,13.0,92,0.00,,,0.00,0.0,meteohub,2013-08-06 12:03:00,
2013-08-06 05:08:00,53.4,51.1,30.10,WSW,253,3.0,13.0,92,0.00,,,0.00,0.0,meteohub,2013-08-06 12:08:00,
2013-08-06 05:13:00,53.4,51.1,30.10,WSW,248,7.0,13.0,92,0.00,,,0.00,0.0,meteohub,2013-08-06 12:13:00,
2013-08-06 05:18:00,53.2,50.9,30.10,SSW,213,7.0,10.0,92,0.00,,,0.00,0.0,meteohub,2013-08-06 12:18:00,
2013-08-06 05:23:00,53.2,50.9,30.10,WSW,256,5.0,10.0,92,0.00,,,0.00,0.0,meteohub,2013-08-06 12:23:00,
2013-08-06 05:28:00,53.2,50.9,30.10,West,264,2.0,10.0,92,0.00,,,0.00,0.0,meteohub,2013-08-06 12:28:00,
2013-08-06 05:33:00,53.2,50.9,30.10,West,281,5.0,11.0,92,0.00,,,0.00,0.0,meteohub,2013-08-06 12:33:00,
2013-08-06 05:38:00,53.2,50.9,30.10,WSW,237,6.0,11.0,92,0.00,,,0.00,0.0,meteohub,2013-08-06 12:38:00,
2013-08-06 05:43:00,53.2,50.9,30.11,SW,229,9.0,11.0,92,0.00,,,0.00,0.0,meteohub,2013-08-06 12:43:00,
2013-08-06 05:48:00,53.2,50.7,30.11,WSW,238,9.0,11.0,91,0.00,,,0.00,0.0,meteohub,2013-08-06 12:48:00,
2013-08-06 05:53:00,53.2,50.7,30.11,West,259,5.0,10.0,91,0.00,,,0.00,0.0,meteohub,2013-08-06 12:53:00,
2013-08-06 05:58:00,53.2,50.7,30.11,WSW,245,3.0,10.0,91,0.00,,,0.00,0.0,meteohub,2013-08-06 12:58:00,
2013-08-06 06:03:00,53.2,50.7,30.11,WSW,239,5.0,10.0,91,0.00,,,0.00,0.0,meteohub,2013-08-06 13:03:00,
2013-08-06 06:08:00,53.2,50.7,30.11,SW,233,8.0,9.0,91,0.00,,,0.00,0.0,meteohub,2013-08-06 13:08:00,
2013-08-06 06:13:00,53.2,50.7,30.11,West,265,5.0,9.0,91,0.00,,,0.00,0.0,meteohub,2013-08-06 13:13:00,
2013-08-06 06:18:00,53.2,50.7,30.12,WSW,248,3.0,9.0,91,0.00,,,0.00,0.0,meteohub,2013-08-06 13:18:00,
2013-08-06 06:24:00,53.4,50.9,30.12,WSW,245,3.0,9.0,91,0.00,,,0.00,0.0,meteohub,2013-08-06 13:24:00,
2013-08-06 06:29:00,53.4,50.9,30.12,WSW,247,0.0,9.0,91,0.00,,,0.00,0.0,meteohub,2013-08-06 13:29:00,
2013-08-06 06:34:00,53.4,50.9,30.12,WSW,242,5.0,9.0,91,0.00,,,0.00,0.0,meteohub,2013-08-06 13:34:00,
2013-08-06 06:39:00,53.4,50.9,30.12,WSW,248,5.0,9.0,91,0.00,,,0.00,5.0,meteohub,2013-08-06 13:39:00,
2013-08-06 06:44:00,53.4,50.9,30.12,West,281,3.0,9.0,91,0.00,,,0.00,9.0,meteohub,2013-08-06 13:44:00,
2013-08-06 06:49:00,53.4,50.9,30.12,West,272,5.0,8.0,91,0.00,,,0.00,11.0,meteohub,2013-08-06 13:49:00,
2013-08-06 06:54:00,53.4,50.9,30.13,WNW,290,3.0,9.0,91,0.00,,,0.00,14.0,meteohub,2013-08-06 13:54:00,
2013-08-06 06:59:00,53.2,50.7,30.13,West,267,7.0,9.0,91,0.00,,,0.00,14.0,meteohub,2013-08-06 13:59:00,
2013-08-06 07:04:00,53.2,50.7,30.13,West,259,3.0,9.0,91,0.00,,,0.00,18.0,meteohub,2013-08-06 14:04:00,
2013-08-06 07:09:00,53.4,50.9,30.13,SW,236,4.0,8.0,91,0.00,,,0.00,19.0,meteohub,2013-08-06 14:09:00,
2013-08-06 07:14:00,53.4,50.9,30.13,SW,232,2.0,9.0,91,0.00,,,0.00,19.0,meteohub,2013-08-06 14:14:00,
2013-08-06 07:19:00,53.4,50.9,30.13,West,267,3.0,9.0,91,0.00,,,0.00,21.0,meteohub,2013-08-06 14:19:00,
2013-08-06 07:24:00,53.4,50.9,30.13,West,270,5.0,9.0,91,0.00,,,0.00,25.0,meteohub,2013-08-06 14:24:00,
2013-08-06 07:29:00,53.4,50.9,30.13,WSW,245,4.0,9.0,91,0.00,,,0.00,28.0,meteohub,2013-08-06 14:29:00,
2013-08-06 07:34:00,53.6,51.1,30.14,SSW,203,0.0,8.0,91,0.00,,,0.00,39.0,meteohub,2013-08-06 14:34:00,
2013-08-06 07:39:00,53.6,51.1,30.14,SW,230,3.0,7.0,91,0.00,,,0.00,42.0,meteohub,2013-08-06 14:39:00,
2013-08-06 07:44:00,53.8,51.3,30.14,WSW,254,2.0,7.0,91,0.00,,,0.00,49.0,meteohub,2013-08-06 14:44:00,
2013-08-06 07:49:00,53.8,51.3,30.14,SW,236,2.0,7.0,91,0.00,,,0.00,53.0,meteohub,2013-08-06 14:49:00,
2013-08-06 07:54:00,54.0,51.4,30.14,SW,228,6.0,7.0,91,0.00,,,0.00,60.0,meteohub,2013-08-06 14:54:00,
2013-08-06 07:59:00,54.0,51.4,30.14,WSW,256,2.0,7.0,91,0.00,,,0.00,60.0,meteohub,2013-08-06 14:59:00,
2013-08-06 08:05:00,54.1,51.3,30.14,SW,221,3.0,7.0,90,0.00,,,0.00,47.0,meteohub,2013-08-06 15:05:00,
2013-08-06 08:10:00,54.1,51.3,30.14,SW,226,2.0,7.0,90,0.00,,,0.00,51.0,meteohub,2013-08-06 15:10:00,
2013-08-06 08:15:00,54.1,51.3,30.14,WSW,250,4.0,7.0,90,0.00,,,0.00,53.0,meteohub,2013-08-06 15:15:00,
2013-08-06 08:20:00,54.1,51.3,30.14,SW,227,4.0,7.0,90,0.00,,,0.00,76.0,meteohub,2013-08-06 15:20:00,
2013-08-06 08:25:00,54.3,51.4,30.15,WSW,247,6.0,7.0,90,0.00,,,0.00,81.0,meteohub,2013-08-06 15:25:00,
2013-08-06 08:30:00,54.3,51.4,30.15,WSW,246,5.0,7.0,90,0.00,,,0.00,111.0,meteohub,2013-08-06 15:30:00,
2013-08-06 08:35:00,54.7,51.4,30.15,WSW,252,5.0,7.0,89,0.00,,,0.00,114.0,meteohub,2013-08-06 15:35:00,
2013-08-06 08:40:00,54.9,51.4,30.15,SW,229,5.0,8.0,88,0.00,,,0.00,114.0,meteohub,2013-08-06 15:40:00,
2013-08-06 08:45:00,55.0,51.6,30.15,West,271,5.0,8.0,88,0.00,,,0.00,130.0,meteohub,2013-08-06 15:45:00,
2013-08-06 08:50:00,55.2,51.4,30.15,WSW,258,4.0,8.0,87,0.00,,,0.00,130.0,meteohub,2013-08-06 15:50:00,
2013-08-06 08:55:00,55.2,51.4,30.15,WSW,253,8.0,8.0,87,0.00,,,0.00,158.0,meteohub,2013-08-06 15:55:00,
2013-08-06 09:00:00,55.6,51.8,30.15,South,188,5.0,10.0,87,0.00,,,0.00,176.0,meteohub,2013-08-06 16:00:00,
2013-08-06 09:05:00,55.8,51.6,30.15,West,259,5.0,10.0,86,0.00,,,0.00,156.0,meteohub,2013-08-06 16:05:00,
2013-08-06 09:10:00,56.1,52.0,30.15,WSW,257,4.0,10.0,86,0.00,,,0.00,153.0,meteohub,2013-08-06 16:10:00,
2013-08-06 09:15:00,56.5,52.0,30.15,WSW,244,5.0,11.0,85,0.00,,,0.00,181.0,meteohub,2013-08-06 16:15:00,
2013-08-06 09:20:00,56.5,52.0,30.15,WSW,245,3.0,12.0,85,0.00,,,0.00,190.0,meteohub,2013-08-06 16:20:00,
2013-08-06 09:25:00,56.7,51.8,30.15,WSW,243,4.0,12.0,84,0.00,,,0.00,181.0,meteohub,2013-08-06 16:25:00,
2013-08-06 09:31:00,56.5,52.0,30.16,WSW,244,7.0,12.0,85,0.00,,,0.00,91.0,meteohub,2013-08-06 16:31:00,
2013-08-06 09:36:00,56.1,51.6,30.16,SW,225,7.0,12.0,85,0.00,,,0.00,72.0,meteohub,2013-08-06 16:36:00,
2013-08-06 09:41:00,55.9,51.8,30.16,SW,235,5.0,12.0,86,0.00,,,0.00,113.0,meteohub,2013-08-06 16:41:00,
2013-08-06 09:46:00,55.9,51.8,30.16,WSW,252,3.0,11.0,86,0.00,,,0.00,139.0,meteohub,2013-08-06 16:46:00,
2013-08-06 09:51:00,55.9,51.8,30.16,West,267,6.0,10.0,86,0.00,,,0.00,176.0,meteohub,2013-08-06 16:51:00,
2013-08-06 09:56:00,56.3,52.2,30.16,SW,231,3.0,10.0,86,0.00,,,0.00,128.0,meteohub,2013-08-06 16:56:00,
2013-08-06 10:01:00,56.5,52.3,30.16,SW,232,4.0,11.0,86,0.00,,,0.00,202.0,meteohub,2013-08-06 17:01:00,
2013-08-06 10:06:00,57.0,52.5,30.16,SW,233,5.0,11.0,85,0.00,,,0.00,244.0,meteohub,2013-08-06 17:06:00,
2013-08-06 10:11:00,57.6,52.7,30.16,West,260,5.0,10.0,84,0.00,,,0.00,265.0,meteohub,2013-08-06 17:11:00,
2013-08-06 10:16:00,57.7,52.3,30.16,SSW,198,7.0,10.0,82,0.00,,,0.00,258.0,meteohub,2013-08-06 17:16:00,
2013-08-06 10:21:00,57.9,52.5,30.16,SW,232,6.0,12.0,82,0.00,,,0.00,253.0,meteohub,2013-08-06 17:21:00,
2013-08-06 10:26:00,58.1,52.7,30.16,SW,224,4.0,13.0,82,0.00,,,0.00,237.0,meteohub,2013-08-06 17:26:00,
2013-08-06 10:27:00,58.1,52.7,30.16,West,266,7.0,13.0,82,0.00,,,0.00,237.0,meteohub,2013-08-06 17:27:00,
2013-08-06 10:32:00,58.3,52.9,30.16,WSW,247,3.0,13.0,82,0.00,,,0.00,243.0,meteohub,2013-08-06 17:32:00,
2013-08-06 10:37:00,58.5,53.1,30.16,WSW,247,3.0,13.0,82,0.00,,,0.00,267.0,meteohub,2013-08-06 17:37:00,
2013-08-06 10:42:00,58.8,53.1,30.16,SW,229,6.0,10.0,81,0.00,,,0.00,260.0,meteohub,2013-08-06 17:42:00,
2013-08-06 10:47:00,59.0,53.2,30.16,West,266,4.0,10.0,81,0.00,,,0.00,274.0,meteohub,2013-08-06 17:47:00,
2013-08-06 10:52:00,59.5,53.4,30.15,WSW,252,6.0,10.0,80,0.00,,,0.00,292.0,meteohub,2013-08-06 17:52:00,
2013-08-06 10:57:00,59.7,53.2,30.16,WSW,257,5.0,10.0,79,0.00,,,0.00,260.0,meteohub,2013-08-06 17:57:00,
2013-08-06 11:02:00,60.3,53.4,30.16,WSW,252,6.0,10.0,78,0.00,,,0.00,172.0,meteohub,2013-08-06 18:02:00,
2013-08-06 11:07:00,60.6,53.8,30.16,WSW,239,8.0,10.0,78,0.00,,,0.00,169.0,meteohub,2013-08-06 18:07:00,
2013-08-06 11:12:00,60.8,53.2,30.16,SW,234,6.0,13.0,76,0.00,,,0.00,135.0,meteohub,2013-08-06 18:12:00,
2013-08-06 11:17:00,61.2,53.6,30.16,SW,229,2.0,13.0,76,0.00,,,0.00,155.0,meteohub,2013-08-06 18:17:00,
2013-08-06 11:22:00,61.5,53.2,30.16,West,275,7.0,14.0,74,0.00,,,0.00,225.0,meteohub,2013-08-06 18:22:00,
2013-08-06 11:27:00,61.7,53.8,30.16,WSW,250,4.0,14.0,75,0.00,,,0.00,255.0,meteohub,2013-08-06 18:27:00,
2013-08-06 11:32:00,61.5,53.2,30.16,WSW,256,6.0,11.0,74,0.00,,,0.00,239.0,meteohub,2013-08-06 18:32:00,
2013-08-06 11:38:00,61.2,53.2,30.16,WSW,257,9.0,16.0,75,0.00,,,0.00,264.0,meteohub,2013-08-06 18:38:00,
2013-08-06 11:43:00,61.5,53.2,30.16,West,259,4.0,16.0,74,0.00,,,0.00,178.0,meteohub,2013-08-06 18:43:00,
2013-08-06 11:48:00,62.2,53.8,30.15,WSW,258,9.0,13.0,74,0.00,,,0.00,135.0,meteohub,2013-08-06 18:48:00,
2013-08-06 11:53:00,62.4,53.2,30.15,WSW,250,5.0,13.0,72,0.00,,,0.00,113.0,meteohub,2013-08-06 18:53:00,
2013-08-06 11:58:00,63.0,53.8,30.15,NW,308,6.0,14.0,72,0.00,,,0.00,105.0,meteohub,2013-08-06 18:58:00,
2013-08-06 12:03:00,63.7,54.1,30.15,WNW,287,6.0,14.0,71,0.00,,,0.00,332.0,meteohub,2013-08-06 19:03:00,
2013-08-06 12:08:00,64.0,54.5,30.15,WSW,242,10.0,14.0,71,0.00,,,0.00,816.0,meteohub,2013-08-06 19:08:00,
2013-08-06 12:13:00,63.7,54.1,30.15,WSW,256,4.0,13.0,71,0.00,,,0.00,842.0,meteohub,2013-08-06 19:13:00,
2013-08-06 12:18:00,63.9,54.3,30.15,SSW,207,5.0,13.0,71,0.00,,,0.00,838.0,meteohub,2013-08-06 19:18:00,
2013-08-06 12:23:00,63.3,53.8,30.15,WSW,253,5.0,13.0,71,0.00,,,0.00,840.0,meteohub,2013-08-06 19:23:00,
2013-08-06 12:28:00,64.2,54.3,30.15,WSW,244,5.0,14.0,70,0.00,,,0.00,867.0,meteohub,2013-08-06 19:28:00,
2013-08-06 12:33:00,64.8,54.3,30.15,WSW,237,8.0,14.0,69,0.00,,,0.00,874.0,meteohub,2013-08-06 19:33:00,
2013-08-06 12:38:00,65.7,54.3,30.15,WSW,250,8.0,13.0,67,0.00,,,0.00,884.0,meteohub,2013-08-06 19:38:00,
2013-08-06 12:43:00,66.0,54.7,30.15,WSW,238,7.0,11.0,67,0.00,,,0.00,889.0,meteohub,2013-08-06 19:43:00,
2013-08-06 12:48:00,66.9,54.9,30.15,WSW,254,6.0,11.0,65,0.00,,,0.00,925.0,meteohub,2013-08-06 19:48:00,
2013-08-06 12:53:00,67.6,55.4,30.15,West,277,2.0,11.0,65,0.00,,,0.00,932.0,meteohub,2013-08-06 19:53:00,
2013-08-06 12:58:00,68.5,54.5,30.14,WSW,248,9.0,11.0,61,0.00,,,0.00,895.0,meteohub,2013-08-06 19:58:00,
2013-08-06 13:04:00,68.5,55.0,30.14,SW,223,9.0,10.0,62,0.00,,,0.00,888.0,meteohub,2013-08-06 20:04:00,
2013-08-06 13:09:00,69.3,55.2,30.14,WSW,257,5.0,11.0,61,0.00,,,0.00,898.0,meteohub,2013-08-06 20:09:00,
2013-08-06 13:14:00,69.6,55.0,30.14,SW,232,6.0,11.0,60,0.00,,,0.00,907.0,meteohub,2013-08-06 20:14:00,
2013-08-06 13:19:00,69.4,54.5,30.14,West,265,6.0,11.0,59,0.00,,,0.00,921.0,meteohub,2013-08-06 20:19:00,
2013-08-06 13:24:00,68.5,54.5,30.14,West,264,8.0,12.0,61,0.00,,,0.00,916.0,meteohub,2013-08-06 20:24:00,
2013-08-06 13:29:00,69.1,54.7,30.14,SW,231,7.0,12.0,60,0.00,,,0.00,891.0,meteohub,2013-08-06 20:29:00,
2013-08-06 13:33:00,69.1,55.0,30.14,SSW,200,7.0,12.0,61,0.00,,,0.00,895.0,meteohub,2013-08-06 20:33:00,
2013-08-06 13:38:00,69.3,54.9,30.14,West,266,6.0,12.0,60,0.00,,,0.00,916.0,meteohub,2013-08-06 20:38:00,
2013-08-06 13:43:00,70.3,55.4,30.14,West,268,7.0,12.0,59,0.00,,,0.00,320.0,meteohub,2013-08-06 20:43:00,
2013-08-06 13:48:00,70.7,55.2,30.13,SW,230,7.0,12.0,58,0.00,,,0.00,977.0,meteohub,2013-08-06 20:48:00,
2013-08-06 13:54:00,71.1,55.6,30.14,West,280,3.0,11.0,58,0.00,,,0.00,951.0,meteohub,2013-08-06 20:54:00,
2013-08-06 13:59:00,71.4,55.4,30.14,WNW,302,6.0,13.0,57,0.00,,,0.00,954.0,meteohub,2013-08-06 20:59:00,
2013-08-06 14:04:00,70.2,54.7,30.13,WSW,258,6.0,13.0,58,0.00,,,0.00,162.0,meteohub,2013-08-06 21:04:00,
2013-08-06 14:09:00,69.6,54.7,30.13,WSW,257,7.0,13.0,59,0.00,,,0.00,930.0,meteohub,2013-08-06 21:09:00,
2013-08-06 14:14:00,70.3,55.8,30.13,SW,216,7.0,12.0,60,0.00,,,0.00,914.0,meteohub,2013-08-06 21:14:00,
2013-08-06 14:17:00,71.1,55.6,30.13,West,261,5.0,12.0,58,0.00,,,0.00,888.0,meteohub,2013-08-06 21:17:00,
2013-08-06 14:22:00,71.4,55.4,30.13,WSW,248,4.0,13.0,57,0.00,,,0.00,870.0,meteohub,2013-08-06 21:22:00,
2013-08-06 14:27:00,72.0,55.4,30.13,SW,236,6.0,13.0,56,0.00,,,0.00,865.0,meteohub,2013-08-06 21:27:00,
2013-08-06 14:32:00,73.0,55.9,30.13,WSW,242,7.0,13.0,55,0.00,,,0.00,861.0,meteohub,2013-08-06 21:32:00,
2013-08-06 14:37:00,72.7,55.6,30.13,SW,232,6.0,13.0,55,0.00,,,0.00,849.0,meteohub,2013-08-06 21:37:00,
2013-08-06 14:42:00,72.7,55.6,30.12,SW,232,6.0,13.0,55,0.00,,,0.00,842.0,meteohub,2013-08-06 21:42:00,
2013-08-06 14:47:00,72.9,55.8,30.13,West,266,5.0,13.0,55,0.00,,,0.00,835.0,meteohub,2013-08-06 21:47:00,
2013-08-06 14:52:00,72.3,55.2,30.13,SW,220,9.0,14.0,55,0.00,,,0.00,824.0,meteohub,2013-08-06 21:52:00,
2013-08-06 14:57:00,72.1,55.6,30.13,WSW,258,12.0,15.0,56,0.00,,,0.00,824.0,meteohub,2013-08-06 21:57:00,
2013-08-06 15:02:00,71.8,55.2,30.12,WSW,240,8.0,15.0,56,0.00,,,0.00,830.0,meteohub,2013-08-06 22:02:00,
2013-08-06 15:07:00,72.0,55.4,30.12,WSW,252,4.0,15.0,56,0.00,,,0.00,826.0,meteohub,2013-08-06 22:07:00,
2013-08-06 15:12:00,72.7,55.6,30.12,WNW,284,5.0,15.0,55,0.00,,,0.00,837.0,meteohub,2013-08-06 22:12:00,
2013-08-06 15:17:00,72.3,55.8,30.12,West,261,8.0,13.0,56,0.00,,,0.00,833.0,meteohub,2013-08-06 22:17:00,
2013-08-06 15:22:00,72.0,54.9,30.12,West,277,3.0,13.0,55,0.00,,,0.00,835.0,meteohub,2013-08-06 22:22:00,
2013-08-06 15:27:00,72.3,55.2,30.12,SW,223,9.0,13.0,55,0.00,,,0.00,817.0,meteohub,2013-08-06 22:27:00,
2013-08-06 15:32:00,71.8,54.7,30.12,WSW,253,8.0,13.0,55,0.00,,,0.00,816.0,meteohub,2013-08-06 22:32:00,
2013-08-06 15:37:00,71.2,54.7,30.12,West,262,4.0,14.0,56,0.00,,,0.00,807.0,meteohub,2013-08-06 22:37:00,
2013-08-06 15:42:00,71.1,55.0,30.12,SW,234,8.0,14.0,57,0.00,,,0.00,786.0,meteohub,2013-08-06 22:42:00,
2013-08-06 15:47:00,70.3,54.9,30.12,WSW,238,13.0,14.0,58,0.00,,,0.00,411.0,meteohub,2013-08-06 22:47:00,
2013-08-06 15:52:00,70.3,54.3,30.12,WSW,251,8.0,13.0,57,0.00,,,0.00,759.0,meteohub,2013-08-06 22:52:00,
2013-08-06 15:57:00,69.6,54.7,30.12,WSW,258,9.0,13.0,59,0.00,,,0.00,731.0,meteohub,2013-08-06 22:57:00,
2013-08-06 16:02:00,69.4,54.5,30.12,WSW,238,4.0,15.0,59,0.00,,,0.00,714.0,meteohub,2013-08-06 23:02:00,
2013-08-06 16:07:00,70.5,55.6,30.12,WNW,286,6.0,16.0,59,0.00,,,0.00,703.0,meteohub,2013-08-06 23:07:00,
2013-08-06 16:12:00,71.1,55.6,30.12,SW,227,4.0,16.0,58,0.00,,,0.00,694.0,meteohub,2013-08-06 23:12:00,
2013-08-06 16:17:00,70.7,55.2,30.12,West,279,4.0,16.0,58,0.00,,,0.00,680.0,meteohub,2013-08-06 23:17:00,
2013-08-06 16:22:00,70.2,55.2,30.12,SW,221,7.0,15.0,59,0.00,,,0.00,659.0,meteohub,2013-08-06 23:22:00,
2013-08-06 16:27:00,70.3,55.4,30.12,NW,309,6.0,15.0,59,0.00,,,0.00,652.0,meteohub,2013-08-06 23:27:00,
2013-08-06 16:32:00,70.5,55.6,30.12,WSW,237,7.0,15.0,59,0.00,,,0.00,636.0,meteohub,2013-08-06 23:32:00,
2013-08-06 16:37:00,70.7,55.6,30.12,West,271,4.0,12.0,59,0.00,,,0.00,626.0,meteohub,2013-08-06 23:37:00,
2013-08-06 16:42:00,71.2,55.2,30.12,SW,222,7.0,12.0,57,0.00,,,0.00,612.0,meteohub,2013-08-06 23:42:00,
2013-08-06 16:47:00,70.9,55.4,30.12,WSW,250,4.0,12.0,58,0.00,,,0.00,601.0,meteohub,2013-08-06 23:47:00,
2013-08-06 16:52:00,70.9,55.4,30.12,SW,231,11.0,12.0,58,0.00,,,0.00,587.0,meteohub,2013-08-06 23:52:00,
2013-08-06 16:57:00,70.2,55.2,30.12,WSW,244,7.0,13.0,59,0.00,,,0.00,578.0,meteohub,2013-08-06 23:57:00,
2013-08-06 17:02:00,69.6,54.7,30.12,SW,233,6.0,13.0,59,0.00,,,0.00,571.0,meteohub,2013-08-07 00:02:00,
2013-08-06 17:07:00,69.6,54.7,30.12,NW,304,5.0,15.0,59,0.00,,,0.00,547.0,meteohub,2013-08-07 00:07:00,
2013-08-06 17:12:00,68.9,54.5,30.12,WNW,290,4.0,15.0,60,0.00,,,0.00,550.0,meteohub,2013-08-07 00:12:00,
2013-08-06 17:17:00,69.1,55.0,30.12,WSW,240,6.0,15.0,61,0.00,,,0.00,452.0,meteohub,2013-08-07 00:17:00,
2013-08-06 17:22:00,68.2,54.1,30.12,SW,236,9.0,17.0,61,0.00,,,0.00,91.0,meteohub,2013-08-07 00:22:00,
2013-08-06 17:27:00,67.3,54.3,30.12,WSW,241,7.0,17.0,63,0.00,,,0.00,515.0,meteohub,2013-08-07 00:27:00,
2013-08-06 17:32:00,67.3,54.3,30.12,SW,227,9.0,17.0,63,0.00,,,0.00,492.0,meteohub,2013-08-07 00:32:00,
2013-08-06 17:37:00,67.3,54.3,30.12,SSW,203,7.0,17.0,63,0.00,,,0.00,462.0,meteohub,2013-08-07 00:37:00,
2013-08-06 17:40:00,66.7,53.8,30.12,SW,231,8.0,17.0,63,0.00,,,0.00,450.0,meteohub,2013-08-07 00:40:00,
2013-08-06 17:45:00,66.7,54.1,30.12,SW,227,8.0,17.0,64,0.00,,,0.00,429.0,meteohub,2013-08-07 00:45:00,
2013-08-06 17:50:00,66.4,53.8,30.12,West,273,6.0,15.0,64,0.00,,,0.00,397.0,meteohub,2013-08-07 00:50:00,
2013-08-06 17:55:00,65.8,53.8,30.12,SW,232,11.0,15.0,65,0.00,,,0.00,394.0,meteohub,2013-08-07 00:55:00,
2013-08-06 18:00:00,65.7,54.0,30.12,WSW,244,7.0,15.0,66,0.00,,,0.00,385.0,meteohub,2013-08-07 01:00:00,
2013-08-06 18:05:00,65.7,54.0,30.12,WSW,251,12.0,15.0,66,0.00,,,0.00,281.0,meteohub,2013-08-07 01:05:00,
2013-08-06 18:10:00,65.8,54.5,30.11,WNW,298,7.0,15.0,67,0.00,,,0.00,359.0,meteohub,2013-08-07 01:10:00,
2013-08-06 18:15:00,65.5,53.8,30.12,WSW,239,6.0,15.0,66,0.00,,,0.00,341.0,meteohub,2013-08-07 01:15:00,
2013-08-06 18:20:00,65.7,54.3,30.12,WSW,257,8.0,15.0,67,0.00,,,0.00,318.0,meteohub,2013-08-07 01:20:00,
2013-08-06 18:25:00,65.1,54.0,30.12,SSW,211,11.0,15.0,67,0.00,,,0.00,292.0,meteohub,2013-08-07 01:25:00,
2013-08-06 18:30:00,64.9,54.1,30.12,WSW,244,7.0,15.0,68,0.00,,,0.00,272.0,meteohub,2013-08-07 01:30:00,
2013-08-06 18:36:00,65.1,54.0,30.12,SW,229,9.0,15.0,67,0.00,,,0.00,251.0,meteohub,2013-08-07 01:36:00,
2013-08-06 18:41:00,65.1,54.0,30.12,West,279,5.0,14.0,67,0.00,,,0.00,237.0,meteohub,2013-08-07 01:41:00,
2013-08-06 18:46:00,64.8,54.0,30.12,WNW,301,4.0,12.0,68,0.00,,,0.00,223.0,meteohub,2013-08-07 01:46:00,
2013-08-06 18:51:00,63.9,53.4,30.12,WSW,241,7.0,14.0,69,0.00,,,0.00,207.0,meteohub,2013-08-07 01:51:00,
2013-08-06 18:56:00,63.1,53.2,30.12,SW,231,7.0,15.0,70,0.00,,,0.00,188.0,meteohub,2013-08-07 01:56:00,
2013-08-06 19:01:00,62.8,53.2,30.12,WSW,244,6.0,15.0,71,0.00,,,0.00,172.0,meteohub,2013-08-07 02:01:00,
2013-08-06 19:06:00,62.4,53.2,30.12,SW,228,5.0,15.0,72,0.00,,,0.00,158.0,meteohub,2013-08-07 02:06:00,
2013-08-06 19:11:00,62.1,53.2,30.12,West,271,5.0,15.0,73,0.00,,,0.00,137.0,meteohub,2013-08-07 02:11:00,
2013-08-06 19:16:00,61.9,53.1,30.12,WSW,247,8.0,15.0,73,0.00,,,0.00,120.0,meteohub,2013-08-07 02:16:00,
2013-08-06 19:21:00,61.3,53.1,30.12,SW,226,11.0,15.0,74,0.00,,,0.00,79.0,meteohub,2013-08-07 02:21:00,
2013-08-06 19:26:00,61.0,53.1,30.12,SW,231,10.0,15.0,75,0.00,,,0.00,33.0,meteohub,2013-08-07 02:26:00,
2013-08-06 19:31:00,60.4,52.9,30.13,WSW,249,8.0,15.0,76,0.00,,,0.00,28.0,meteohub,2013-08-07 02:31:00,
2013-08-06 19:36:00,60.1,52.9,30.12,SSW,202,7.0,15.0,77,0.00,,,0.00,21.0,meteohub,2013-08-07 02:36:00,
2013-08-06 19:41:00,59.7,52.9,30.13,West,264,5.0,14.0,78,0.00,,,0.00,18.0,meteohub,2013-08-07 02:41:00,
2013-08-06 19:46:00,59.5,53.1,30.13,West,271,4.0,12.0,79,0.00,,,0.00,14.0,meteohub,2013-08-07 02:46:00,
2013-08-06 19:51:00,59.5,53.1,30.13,WSW,249,4.0,12.0,79,0.00,,,0.00,12.0,meteohub,2013-08-07 02:51:00,
2013-08-06 19:56:00,59.4,53.2,30.13,West,261,4.0,11.0,80,0.00,,,0.00,7.0,meteohub,2013-08-07 02:56:00,
2013-08-06 20:01:00,59.4,53.2,30.13,SW,222,7.0,9.0,80,0.00,,,0.00,5.0,meteohub,2013-08-07 03:01:00,
2013-08-06 20:07:00,59.2,53.1,30.13,WSW,243,5.0,9.0,80,0.00,,,0.00,0.0,meteohub,2013-08-07 03:07:00,
2013-08-06 20:12:00,59.0,53.2,30.14,WSW,245,3.0,10.0,81,0.00,,,0.00,0.0,meteohub,2013-08-07 03:12:00,
2013-08-06 20:17:00,59.0,53.2,30.14,WSW,244,7.0,11.0,81,0.00,,,0.00,0.0,meteohub,2013-08-07 03:17:00,
2013-08-06 20:22:00,59.0,53.2,30.14,SW,235,8.0,11.0,81,0.00,,,0.00,0.0,meteohub,2013-08-07 03:22:00,
2013-08-06 20:27:00,58.8,53.1,30.13,West,261,4.0,11.0,81,0.00,,,0.00,0.0,meteohub,2013-08-07 03:27:00,
2013-08-06 20:32:00,58.8,53.4,30.14,SW,232,4.0,13.0,82,0.00,,,0.00,0.0,meteohub,2013-08-07 03:32:00,
2013-08-06 20:37:00,58.6,53.2,30.14,SW,236,6.0,13.0,82,0.00,,,0.00,0.0,meteohub,2013-08-07 03:37:00,
2013-08-06 20:42:00,58.6,53.2,30.14,West,279,4.0,13.0,82,0.00,,,0.00,0.0,meteohub,2013-08-07 03:42:00,
2013-08-06 20:47:00,58.6,53.2,30.14,South,191,6.0,10.0,82,0.00,,,0.00,0.0,meteohub,2013-08-07 03:47:00,
2013-08-06 20:52:00,58.5,53.1,30.14,SW,228,5.0,12.0,82,0.00,,,0.00,0.0,meteohub,2013-08-07 03:52:00,
2013-08-06 20:57:00,58.3,53.1,30.14,WSW,246,6.0,12.0,83,0.00,,,0.00,0.0,meteohub,2013-08-07 03:57:00,
2013-08-06 21:01:00,58.3,53.1,30.14,West,266,6.0,13.0,83,0.00,,,0.00,0.0,meteohub,2013-08-07 04:01:00,
2013-08-06 21:02:00,58.3,53.1,30.14,WSW,254,7.0,13.0,83,0.00,,,0.00,0.0,meteohub,2013-08-07 04:02:00,
2013-08-06 21:03:00,58.3,53.1,30.14,WSW,242,11.0,13.0,83,0.00,,,0.00,0.0,meteohub,2013-08-07 04:03:00,
2013-08-06 21:04:00,58.3,53.1,30.14,WSW,241,8.0,13.0,83,0.00,,,0.00,0.0,meteohub,2013-08-07 04:04:00,
2013-08-06 21:09:00,58.1,52.9,30.15,WSW,247,6.0,13.0,83,0.00,,,0.00,0.0,meteohub,2013-08-07 04:09:00,
2013-08-06 21:14:00,58.1,52.9,30.15,West,264,7.0,13.0,83,0.00,,,0.00,0.0,meteohub,2013-08-07 04:14:00,
2013-08-06 21:19:00,58.1,52.9,30.15,WSW,257,5.0,13.0,83,0.00,,,0.00,0.0,meteohub,2013-08-07 04:19:00,
2013-08-06 21:24:00,58.1,52.9,30.15,SW,232,14.0,14.0,83,0.00,,,0.00,0.0,meteohub,2013-08-07 04:24:00,
2013-08-06 21:29:00,57.9,53.1,30.15,West,267,5.0,13.0,84,0.00,,,0.00,0.0,meteohub,2013-08-07 04:29:00,
2013-08-06 21:34:00,57.9,53.1,30.15,SSW,202,7.0,15.0,84,0.00,,,0.00,0.0,meteohub,2013-08-07 04:34:00,
2013-08-06 21:39:00,57.9,53.4,30.15,West,281,5.0,15.0,85,0.00,,,0.00,0.0,meteohub,2013-08-07 04:39:00,
2013-08-06 21:44:00,57.7,53.2,30.15,WSW,250,12.0,15.0,85,0.00,,,0.00,0.0,meteohub,2013-08-07 04:44:00,
2013-08-06 21:49:00,57.7,53.2,30.16,WSW,248,6.0,16.0,85,0.00,,,0.00,0.0,meteohub,2013-08-07 04:49:00,
2013-08-06 21:54:00,57.9,53.4,30.15,West,273,4.0,16.0,85,0.00,,,0.00,0.0,meteohub,2013-08-07 04:54:00,
2013-08-06 21:59:00,57.9,53.4,30.16,SW,236,7.0,16.0,85,0.00,,,0.00,0.0,meteohub,2013-08-07 04:59:00,
2013-08-06 22:04:00,57.9,53.4,30.16,SW,231,11.0,12.0,85,0.00,,,0.00,0.0,meteohub,2013-08-07 05:04:00,
2013-08-06 22:09:00,58.1,53.6,30.16,WSW,237,4.0,12.0,85,0.00,,,0.00,0.0,meteohub,2013-08-07 05:09:00,
2013-08-06 22:14:00,58.1,53.6,30.16,WSW,257,5.0,12.0,85,0.00,,,0.00,0.0,meteohub,2013-08-07 05:14:00,
2013-08-06 22:19:00,58.1,53.6,30.16,WSW,252,10.0,12.0,85,0.00,,,0.00,0.0,meteohub,2013-08-07 05:19:00,
2013-08-06 22:24:00,58.1,54.0,30.16,SW,236,3.0,13.0,86,0.00,,,0.00,0.0,meteohub,2013-08-07 05:24:00,
2013-08-06 22:29:00,57.9,53.8,30.16,SW,234,4.0,15.0,86,0.00,,,0.00,0.0,meteohub,2013-08-07 05:29:00,
2013-08-06 22:35:00,57.9,53.8,30.16,WSW,246,6.0,15.0,86,0.00,,,0.00,0.0,meteohub,2013-08-07 05:35:00,
2013-08-06 22:40:00,57.9,53.8,30.16,WSW,251,12.0,15.0,86,0.00,,,0.00,0.0,meteohub,2013-08-07 05:40:00,
2013-08-06 22:45:00,57.9,53.8,30.16,SW,217,6.0,15.0,86,0.00,,,0.00,0.0,meteohub,2013-08-07 05:45:00,
2013-08-06 22:50:00,57.9,54.1,30.16,SSW,202,7.0,15.0,87,0.00,,,0.00,0.0,meteohub,2013-08-07 05:50:00,
2013-08-06 22:55:00,57.7,54.0,30.16,WSW,253,6.0,13.0,87,0.00,,,0.00,0.0,meteohub,2013-08-07 05:55:00,
2013-08-06 23:00:00,57.7,54.0,30.17,WSW,250,5.0,12.0,87,0.00,,,0.00,0.0,meteohub,2013-08-07 06:00:00,
2013-08-06 23:05:00,57.7,54.0,30.17,West,263,6.0,13.0,87,0.00,,,0.00,0.0,meteohub,2013-08-07 06:05:00,
2013-08-06 23:10:00,57.6,54.0,30.17,WSW,243,6.0,13.0,88,0.00,,,0.00,0.0,meteohub,2013-08-07 06:10:00,
2013-08-06 23:15:00,57.6,54.0,30.17,WSW,250,4.0,13.0,88,0.00,,,0.00,0.0,meteohub,2013-08-07 06:15:00,
2013-08-06 23:20:00,57.6,54.0,30.17,SSW,213,5.0,13.0,88,0.00,,,0.00,0.0,meteohub,2013-08-07 06:20:00,
2013-08-06 23:25:00,57.6,54.3,30.17,West,270,5.0,12.0,89,0.00,,,0.00,0.0,meteohub,2013-08-07 06:25:00,
2013-08-06 23:30:00,57.6,54.3,30.17,SW,226,6.0,12.0,89,0.00,,,0.00,0.0,meteohub,2013-08-07 06:30:00,
2013-08-06 23:35:00,57.4,54.1,30.17,WSW,238,3.0,12.0,89,0.00,,,0.00,0.0,meteohub,2013-08-07 06:35:00,
2013-08-06 23:40:00,57.4,53.8,30.17,SW,223,9.0,11.0,88,0.00,,,0.00,0.0,meteohub,2013-08-07 06:40:00,
2013-08-06 23:45:00,57.4,54.1,30.17,West,279,8.0,14.0,89,0.00,,,0.00,0.0,meteohub,2013-08-07 06:45:00,
2013-08-06 23:50:00,57.4,54.1,30.17,WSW,248,10.0,14.0,89,0.00,,,0.00,0.0,meteohub,2013-08-07 06:50:00,
2013-08-06 23:55:00,57.4,54.1,30.17,WSW,247,7.0,14.0,89,0.00,,,0.00,0.0,meteohub,2013-08-07 06:55:00,